カタログに戻る

STARLINK-34590

運用中通信VLEO
NORAD 64675·PAYLOAD·🇺🇸 United States

打ち上げ Jun 28, 2025 から Cape Canaveral Space Force Station

Loading…

次のパス (今後24時間)

TLE

最新Source: CelesTrak SupGP

元期: Sep 15, 2026, 03:00 UTC

1 64675C 25139M   26258.12548611  .00059011  00000+0  17433-2 0  2582
2 64675  53.1597 324.5224 0001200  83.4856 301.8513 15.34364914    11

AllMySatでSTARLINK-34590をリアルタイム追跡

Download on the App Store